Time,TemperatureF,DewpointF,PressureIn,WindDirection,WindDirectionDegrees,WindSpeedMPH,WindSpeedGustMPH,Humidity,HourlyPrecipIn,Conditions,Clouds,dailyrainin,SoftwareType,DateUTC
2013-09-30 00:04:00,70.4,33.0,29.85,ENE,72,0.0,0.0,25,0.00,,,0.00,weatherlink.com 1.10,2013-09-30 06:04:00,
2013-09-30 00:19:00,70.3,33.0,29.84,NE,49,0.0,1.0,25,0.00,,,0.00,weatherlink.com 1.10,2013-09-30 06:19:00,
2013-09-30 00:34:00,71.2,33.0,29.84,NE,49,0.0,0.0,24,0.00,,,0.00,weatherlink.com 1.10,2013-09-30 06:34:00,
2013-09-30 00:49:00,71.3,32.0,29.84,NE,49,0.0,0.0,23,0.00,,,0.00,weatherlink.com 1.10,2013-09-30 06:49:00,
2013-09-30 01:04:00,70.3,32.0,29.84,NE,46,0.0,0.0,24,0.00,,,0.00,weatherlink.com 1.10,2013-09-30 07:04:00,
2013-09-30 01:19:00,70.0,30.0,29.84,North,360,1.0,2.0,23,0.00,,,0.00,weatherlink.com 1.10,2013-09-30 07:19:00,
2013-09-30 01:34:00,69.7,31.0,29.84,North,358,1.0,1.0,24,0.00,,,0.00,weatherlink.com 1.10,2013-09-30 07:34:00,
2013-09-30 01:49:00,68.6,31.0,29.84,North,354,2.0,2.0,25,0.00,,,0.00,weatherlink.com 1.10,2013-09-30 07:49:00,
2013-09-30 02:04:00,68.4,32.0,29.84,North,1,2.0,3.0,26,0.00,,,0.00,weatherlink.com 1.10,2013-09-30 08:04:00,
2013-09-30 02:19:00,67.5,32.0,29.84,NNW,345,0.0,2.0,27,0.00,,,0.00,weatherlink.com 1.10,2013-09-30 08:19:00,
2013-09-30 02:34:00,67.0,33.0,29.84,NNW,335,2.0,3.0,28,0.00,,,0.00,weatherlink.com 1.10,2013-09-30 08:34:00,
2013-09-30 02:49:00,66.4,32.0,29.83,ENE,75,1.0,1.0,28,0.00,,,0.00,weatherlink.com 1.10,2013-09-30 08:49:00,
2013-09-30 03:04:00,66.2,32.0,29.83,East,83,1.0,3.0,28,0.00,,,0.00,weatherlink.com 1.10,2013-09-30 09:04:00,
2013-09-30 03:19:00,65.9,32.0,29.82,East,80,1.0,5.0,28,0.00,,,0.00,weatherlink.com 1.10,2013-09-30 09:19:00,
2013-09-30 03:34:00,66.1,31.0,29.83,ESE,107,2.0,2.0,27,0.00,,,0.00,weatherlink.com 1.10,2013-09-30 09:34:00,
2013-09-30 03:49:00,65.4,31.0,29.82,East,87,2.0,2.0,28,0.00,,,0.00,weatherlink.com 1.10,2013-09-30 09:49:00,
2013-09-30 04:04:00,66.2,31.0,29.82,West,269,0.0,3.0,27,0.00,,,0.00,weatherlink.com 1.10,2013-09-30 10:04:00,
2013-09-30 04:19:00,66.2,32.0,29.82,NNE,12,0.0,2.0,28,0.00,,,0.00,weatherlink.com 1.10,2013-09-30 10:19:00,
2013-09-30 04:34:00,66.2,34.0,29.82,WSW,255,0.0,3.0,30,0.00,,,0.00,weatherlink.com 1.10,2013-09-30 10:34:00,
2013-09-30 04:49:00,65.3,34.0,29.82,NW,326,0.0,1.0,31,0.00,,,0.00,weatherlink.com 1.10,2013-09-30 10:49:00,
2013-09-30 05:04:00,64.1,33.0,29.82,West,281,0.0,0.0,32,0.00,,,0.00,weatherlink.com 1.10,2013-09-30 11:04:00,
2013-09-30 05:19:00,64.2,34.0,29.82,ENE,78,0.0,1.0,32,0.00,,,0.00,weatherlink.com 1.10,2013-09-30 11:19:00,
2013-09-30 05:35:00,64.4,35.0,29.82,North,351,1.0,3.0,33,0.00,,,0.00,weatherlink.com 1.10,2013-09-30 11:35:00,
2013-09-30 05:49:00,63.9,35.0,29.82,NNW,345,0.0,2.0,34,0.00,,,0.00,weatherlink.com 1.10,2013-09-30 11:49:00,
2013-09-30 06:04:00,64.0,35.0,29.82,North,6,1.0,3.0,34,0.00,,,0.00,weatherlink.com 1.10,2013-09-30 12:04:00,
2013-09-30 06:19:00,63.6,35.0,29.82,NNE,15,1.0,1.0,34,0.00,,,0.00,weatherlink.com 1.10,2013-09-30 12:19:00,
2013-09-30 06:34:00,63.2,36.0,29.82,North,4,0.0,3.0,36,0.00,,,0.00,weatherlink.com 1.10,2013-09-30 12:34:00,
2013-09-30 06:49:00,62.8,36.0,29.82,ESE,108,1.0,2.0,37,0.00,,,0.00,weatherlink.com 1.10,2013-09-30 12:49:00,
2013-09-30 07:04:00,63.1,36.0,29.82,East,95,0.0,1.0,36,0.00,,,0.00,weatherlink.com 1.10,2013-09-30 13:04:00,
2013-09-30 07:19:00,63.1,35.0,29.82,East,95,0.0,0.0,35,0.00,,,0.00,weatherlink.com 1.10,2013-09-30 13:19:00,
2013-09-30 07:34:00,61.3,35.0,29.82,East,95,0.0,0.0,38,0.00,,,0.00,weatherlink.com 1.10,2013-09-30 13:34:00,
2013-09-30 07:49:00,62.7,35.0,29.82,ESE,120,0.0,1.0,36,0.00,,,0.00,weatherlink.com 1.10,2013-09-30 13:49:00,
2013-09-30 08:04:00,65.0,36.0,29.82,ESE,120,1.0,1.0,34,0.00,,,0.00,weatherlink.com 1.10,2013-09-30 14:04:00,
2013-09-30 08:19:00,68.1,39.0,29.82,ESE,120,0.0,1.0,35,0.00,,,0.00,weatherlink.com 1.10,2013-09-30 14:19:00,
2013-09-30 08:34:00,70.7,39.0,29.82,ESE,120,0.0,0.0,32,0.00,,,0.00,weatherlink.com 1.10,2013-09-30 14:34:00,
2013-09-30 08:49:00,71.1,40.0,29.82,SE,138,1.0,1.0,33,0.00,,,0.00,weatherlink.com 1.10,2013-09-30 14:49:00,
2013-09-30 09:05:00,69.6,43.0,29.83,SSW,203,0.0,3.0,39,0.00,,,0.00,weatherlink.com 1.10,2013-09-30 15:05:00,
2013-09-30 09:20:00,70.8,41.0,29.83,SW,228,1.0,2.0,34,0.00,,,0.00,weatherlink.com 1.10,2013-09-30 15:20:00,
2013-09-30 09:35:00,71.2,41.0,29.83,West,260,1.0,3.0,34,0.00,,,0.00,weatherlink.com 1.10,2013-09-30 15:35:00,
2013-09-30 09:50:00,70.9,40.0,29.83,WSW,257,2.0,4.0,32,0.00,,,0.00,weatherlink.com 1.10,2013-09-30 15:50:00,
2013-09-30 10:05:00,72.2,40.0,29.84,WSW,238,2.0,3.0,31,0.00,,,0.00,weatherlink.com 1.10,2013-09-30 16:05:00,
2013-09-30 10:20:00,74.0,40.0,29.84,SW,232,0.0,2.0,29,0.00,,,0.00,weatherlink.com 1.10,2013-09-30 16:20:00,
2013-09-30 10:35:00,74.0,39.0,29.83,West,278,0.0,2.0,28,0.00,,,0.00,weatherlink.com 1.10,2013-09-30 16:35:00,
2013-09-30 10:50:00,74.1,40.0,29.82,WNW,298,1.0,3.0,29,0.00,,,0.00,weatherlink.com 1.10,2013-09-30 16:50:00,
2013-09-30 11:05:00,74.1,39.0,29.82,WNW,284,3.0,7.0,28,0.00,,,0.00,weatherlink.com 1.10,2013-09-30 17:05:00,
2013-09-30 11:20:00,74.5,40.0,29.82,WNW,288,1.0,4.0,29,0.00,,,0.00,weatherlink.com 1.10,2013-09-30 17:20:00,
2013-09-30 11:35:00,74.8,39.0,29.81,West,269,0.0,6.0,27,0.00,,,0.00,weatherlink.com 1.10,2013-09-30 17:35:00,
2013-09-30 11:50:00,74.9,41.0,29.81,WNW,295,5.0,6.0,29,0.00,,,0.00,weatherlink.com 1.10,2013-09-30 17:50:00,
2013-09-30 12:05:00,75.4,42.0,29.80,NW,307,5.0,8.0,30,0.00,,,0.00,weatherlink.com 1.10,2013-09-30 18:05:00,
2013-09-30 12:20:00,75.7,40.0,29.80,NW,311,5.0,11.0,28,0.00,,,0.00,weatherlink.com 1.10,2013-09-30 18:20:00,
2013-09-30 12:35:00,77.0,41.0,29.79,West,270,2.0,7.0,28,0.00,,,0.00,weatherlink.com 1.10,2013-09-30 18:35:00,
2013-09-30 12:50:00,77.8,43.0,29.78,NW,311,6.0,10.0,29,0.00,,,0.00,weatherlink.com 1.10,2013-09-30 18:50:00,
2013-09-30 13:05:00,78.8,41.0,29.77,WNW,284,1.0,7.0,26,0.00,,,0.00,weatherlink.com 1.10,2013-09-30 19:05:00,
2013-09-30 13:20:00,79.6,41.0,29.76,WNW,288,1.0,8.0,25,0.00,,,0.00,weatherlink.com 1.10,2013-09-30 19:20:00,
2013-09-30 13:35:00,80.5,43.0,29.75,WNW,302,2.0,11.0,26,0.00,,,0.00,weatherlink.com 1.10,2013-09-30 19:35:00,
2013-09-30 13:50:00,80.6,38.0,29.74,WNW,290,8.0,16.0,22,0.00,,,0.00,weatherlink.com 1.10,2013-09-30 19:50:00,
2013-09-30 14:05:00,80.9,36.0,29.73,WNW,298,4.0,15.0,20,0.00,,,0.00,weatherlink.com 1.10,2013-09-30 20:05:00,
2013-09-30 14:20:00,81.7,37.0,29.72,WNW,288,3.0,14.0,20,0.00,,,0.00,weatherlink.com 1.10,2013-09-30 20:20:00,
2013-09-30 14:35:00,81.9,33.0,29.72,WNW,294,4.0,12.0,17,0.00,,,0.00,weatherlink.com 1.10,2013-09-30 20:35:00,
2013-09-30 14:50:00,81.7,34.0,29.71,NW,319,6.0,15.0,18,0.00,,,0.00,weatherlink.com 1.10,2013-09-30 20:50:00,
2013-09-30 15:05:00,82.6,35.0,29.70,NW,311,5.0,11.0,18,0.00,,,0.00,weatherlink.com 1.10,2013-09-30 21:05:00,
2013-09-30 15:20:00,82.5,38.0,29.70,NW,307,5.0,12.0,20,0.00,,,0.00,weatherlink.com 1.10,2013-09-30 21:20:00,
2013-09-30 15:35:00,83.1,37.0,29.69,NW,314,4.0,10.0,19,0.00,,,0.00,weatherlink.com 1.10,2013-09-30 21:35:00,
2013-09-30 15:50:00,83.3,36.0,29.68,West,269,3.0,11.0,18,0.00,,,0.00,weatherlink.com 1.10,2013-09-30 21:50:00,
2013-09-30 16:05:00,83.5,31.0,29.68,WNW,297,3.0,14.0,15,0.00,,,0.00,weatherlink.com 1.10,2013-09-30 22:05:00,
2013-09-30 16:20:00,84.0,30.0,29.68,NNW,346,5.0,12.0,14,0.00,,,0.00,weatherlink.com 1.10,2013-09-30 22:20:00,
2013-09-30 16:36:00,83.9,32.0,29.68,WNW,288,4.0,11.0,15,0.00,,,0.00,weatherlink.com 1.10,2013-09-30 22:36:00,
2013-09-30 16:51:00,83.8,31.0,29.68,WNW,295,6.0,13.0,15,0.00,,,0.00,weatherlink.com 1.10,2013-09-30 22:51:00,
2013-09-30 17:06:00,83.7,30.0,29.68,WNW,291,6.0,13.0,14,0.00,,,0.00,weatherlink.com 1.10,2013-09-30 23:06:00,
2013-09-30 17:21:00,83.7,31.0,29.68,West,262,5.0,11.0,15,0.00,,,0.00,weatherlink.com 1.10,2013-09-30 23:21:00,
2013-09-30 17:36:00,83.5,29.0,29.68,WNW,293,7.0,10.0,14,0.00,,,0.00,weatherlink.com 1.10,2013-09-30 23:36:00,
2013-09-30 17:51:00,83.3,28.0,29.67,WSW,256,5.0,8.0,13,0.00,,,0.00,weatherlink.com 1.10,2013-09-30 23:51:00,
2013-09-30 18:06:00,83.1,27.0,29.67,WNW,285,3.0,11.0,13,0.00,,,0.00,weatherlink.com 1.10,2013-10-01 00:06:00,
2013-09-30 18:21:00,82.4,27.0,29.68,West,266,5.0,9.0,13,0.00,,,0.00,weatherlink.com 1.10,2013-10-01 00:21:00,
2013-09-30 18:36:00,81.7,26.0,29.68,WNW,300,1.0,7.0,13,0.00,,,0.00,weatherlink.com 1.10,2013-10-01 00:36:00,
2013-09-30 18:51:00,80.0,27.0,29.68,West,266,2.0,7.0,14,0.00,,,0.00,weatherlink.com 1.10,2013-10-01 00:51:00,
2013-09-30 19:06:00,77.6,26.0,29.68,West,269,0.0,3.0,15,0.00,,,0.00,weatherlink.com 1.10,2013-10-01 01:06:00,
2013-09-30 19:21:00,75.9,27.0,29.68,WNW,301,0.0,4.0,16,0.00,,,0.00,weatherlink.com 1.10,2013-10-01 01:21:00,
2013-09-30 19:36:00,74.8,27.0,29.68,NW,323,1.0,2.0,17,0.00,,,0.00,weatherlink.com 1.10,2013-10-01 01:36:00,
2013-09-30 19:51:00,74.6,25.0,29.68,NE,36,1.0,1.0,16,0.00,,,0.00,weatherlink.com 1.10,2013-10-01 01:51:00,
2013-09-30 20:06:00,75.1,26.0,29.69,NE,54,2.0,3.0,16,0.00,,,0.00,weatherlink.com 1.10,2013-10-01 02:06:00,
2013-09-30 20:21:00,74.8,26.0,29.69,NE,56,2.0,4.0,16,0.00,,,0.00,weatherlink.com 1.10,2013-10-01 02:21:00,
2013-09-30 20:36:00,75.5,26.0,29.70,NE,51,2.0,6.0,16,0.00,,,0.00,weatherlink.com 1.10,2013-10-01 02:36:00,
2013-09-30 20:51:00,75.5,28.0,29.70,NNE,33,1.0,5.0,17,0.00,,,0.00,weatherlink.com 1.10,2013-10-01 02:51:00,
2013-09-30 21:06:00,75.1,27.0,29.71,NNE,30,1.0,4.0,17,0.00,,,0.00,weatherlink.com 1.10,2013-10-01 03:06:00,
2013-09-30 21:21:00,75.0,26.0,29.71,NNE,28,3.0,6.0,16,0.00,,,0.00,weatherlink.com 1.10,2013-10-01 03:21:00,
2013-09-30 21:37:00,73.8,26.0,29.71,NNW,345,1.0,5.0,17,0.00,,,0.00,weatherlink.com 1.10,2013-10-01 03:37:00,
2013-09-30 21:51:00,73.3,26.0,29.71,NNE,13,0.0,5.0,17,0.00,,,0.00,weatherlink.com 1.10,2013-10-01 03:51:00,
2013-09-30 22:06:00,73.6,25.0,29.72,ENE,71,3.0,6.0,16,0.00,,,0.00,weatherlink.com 1.10,2013-10-01 04:06:00,
2013-09-30 22:21:00,74.0,25.0,29.72,North,5,7.0,8.0,16,0.00,,,0.00,weatherlink.com 1.10,2013-10-01 04:21:00,
2013-09-30 22:36:00,73.5,25.0,29.72,North,359,7.0,8.0,16,0.00,,,0.00,weatherlink.com 1.10,2013-10-01 04:36:00,
2013-09-30 22:52:00,73.5,25.0,29.72,North,6,3.0,6.0,16,0.00,,,0.00,weatherlink.com 1.10,2013-10-01 04:52:00,
2013-09-30 23:06:00,73.6,23.0,29.72,NNE,28,2.0,6.0,15,0.00,,,0.00,weatherlink.com 1.10,2013-10-01 05:06:00,
2013-09-30 23:21:00,74.2,24.0,29.72,NE,41,2.0,8.0,15,0.00,,,0.00,weatherlink.com 1.10,2013-10-01 05:21:00,
2013-09-30 23:36:00,74.4,25.0,29.71,NNW,345,5.0,10.0,16,0.00,,,0.00,weatherlink.com 1.10,2013-10-01 05:36:00,
2013-09-30 23:51:00,73.7,26.0,29.71,NNE,13,3.0,6.0,17,0.00,,,0.00,weatherlink.com 1.10,2013-10-01 05:51:00,